"Pseudo-MPEC" for CEPAVH2

Created 2026 Jun 17 18:35:04 UT using Find_Orb

Click here for an explanation of pseudo-MPECs

 
 Astrometry: 
     CEPAVH2*1C2026 06 16.44972822 58 14.020+15 56 09.53   ~6GBK       VNEOCPG96
     CEPAVH2 1C2026 06 16.45302422 58 14.927+15 55 50.99   ~6GBK 21.41GVNEOCPG96
     CEPAVH2 1C2026 06 16.45631822 58 15.812+15 55 31.98   ~6GBK 20.59GVNEOCPG96
     CEPAVH2 1C2026 06 16.45961422 58 16.705+15 55 13.98   ~6GBK 21.24GVNEOCPG96

Station data:
(G96) Mt. Lemmon Survey  (N32.442729 W110.788720)
   US/Arizona.  Observer E. J. Christensen. Measurers T. Beuden, V. F.
   Carvajal, D. Fay, J. B. Fazekas, D. C. Fuls, A. R. Gibbs, A. D. Grauer, H.
   Gröller, J. K. Hogan, R. A. Kowalski, S. M. Larson, G. J. Leonard, D.
   Rankin, R. L. Seaman, F. C. Shelly, K. W. Wierzchoś. 1.5-m reflector + 10K
   CCD.

Orbital elements:  CEPAVH2
   Perihelion 2026 Sep 19.521203 +/- 57 TT = 12:30:31.9 (JD 2461303.021203)
Epoch 2026 Jun 16.0 TT = JDT 2461207.5   Earth MOID: 0.0074      AutoNEOCP
M 228.517662180 +/- 70              (J2000 ecliptic)
n   1.376472797 +/- 0.874           Peri.  331.271702 +/- 90
a   0.800370292 +/- 0.339           Node    94.198680 +/- 22
e   0.37343015 +/- 0.248            Incl.   96.573265 +/- 39
P   0.716/261.533d         H 22.23  G  0.15   U 12.7  SR
q 0.501487893 +/- 0.327    Q 1.099252692 +/- 19.7
From 4 observations 2026 June 16 (14.2 min); mean residual 0".16
Residuals in arcseconds: 
260616 G96  .07-  .07+    260616 G96  .01-  .37-    
260616 G96  .11+  .08+    260616 G96  .03-  .22+    

Ephemerides (geocentric):
Date (UTC) HH   RA             Dec           delta  r     elong  mag " sig PA
---- --------  ------------   ------------  ------ ------ -----  --- --------
2026 06 17 19  23 05 44.213   +13 24 46.52  .15647 1.0364  93.1 21.0  43d  78
2026 06 17 20  23 06 00.791   +13 19 06.35  .15554 1.0362  93.2 21.0  44d  78
2026 06 17 21  23 06 17.552   +13 13 22.00  .15461 1.0361  93.2 21.0  44d  78
2026 06 17 22  23 06 34.499   +13 07 33.40  .15368 1.0359  93.2 21.0  45d  78
2026 06 17 23  23 06 51.637   +13 01 40.48  .15276 1.0358  93.2 21.0  46d  78
2026 06 18 00  23 07 08.967   +12 55 43.16  .15183 1.0356  93.2 20.9  47d  78
2026 06 18 01  23 07 26.494   +12 49 41.36  .15090 1.0355  93.2 20.9  47d  78
2026 06 18 02  23 07 44.221   +12 43 34.99  .14998 1.0354  93.3 20.9  47d  78
2026 06 18 03  23 08 02.151   +12 37 23.98  .14905 1.0352  93.3 20.9  48d  78
2026 06 18 04  23 08 20.287   +12 31 08.25  .14813 1.0351  93.3 20.9  49d  78
2026 06 18 05  23 08 38.634   +12 24 47.70  .14720 1.0349  93.3 20.9  49d  78
2026 06 18 06  23 08 57.195   +12 18 22.25  .14628 1.0348  93.3 20.9  50d  78
2026 06 18 07  23 09 15.973   +12 11 51.81  .14536 1.0346  93.3 20.9  51d  78
2026 06 18 08  23 09 34.973   +12 05 16.28  .14444 1.0345  93.3 20.8  51d  78
2026 06 18 09  23 09 54.199   +11 58 35.58  .14352 1.0344  93.4 20.8  52d  78
2026 06 18 10  23 10 13.654   +11 51 49.60  .14259 1.0342  93.4 20.8  53d  78
2026 06 18 11  23 10 33.343   +11 44 58.24  .14168 1.0341  93.4 20.8  53d  78
2026 06 18 12  23 10 53.271   +11 38 01.41  .14076 1.0339  93.4 20.8  54d  78
2026 06 18 13  23 11 13.440   +11 30 59.00  .13984 1.0338  93.4 20.8  55d  80
2026 06 18 14  23 11 33.856   +11 23 50.91  .13892 1.0336  93.4 20.8  55d  80
2026 06 18 15  23 11 54.524   +11 16 37.02  .13801 1.0335  93.4 20.8  56d  80
2026 06 18 16  23 12 15.448   +11 09 17.22  .13709 1.0333  93.4 20.7  56d  80
2026 06 18 17  23 12 36.632   +11 01 51.41  .13618 1.0332  93.5 20.7  57d  80
2026 06 18 18  23 12 58.082   +10 54 19.46  .13526 1.0331  93.5 20.7  57d  80
2026 06 18 19  23 13 19.803   +10 46 41.25  .13435 1.0329  93.5 20.7  58d  80
2026 06 18 20  23 13 41.800   +10 38 56.67  .13344 1.0328  93.5 20.7  58d  80
2026 06 18 21  23 14 04.077   +10 31 05.58  .13253 1.0326  93.5 20.7  58d  80
2026 06 18 22  23 14 26.641   +10 23 07.85  .13162 1.0325  93.5 20.7  58d  80
2026 06 18 23  23 14 49.497   +10 15 03.37  .13071 1.0323  93.5 20.6  58d  80
2026 06 19 00  23 15 12.651   +10 06 51.98  .12980 1.0322  93.5 20.6  59d  80
2026 06 19 01  23 15 36.108   +09 58 33.56  .12889 1.0320  93.5 20.6  59d  80
2026 06 19 02  23 15 59.875   +09 50 07.96  .12799 1.0319  93.5 20.6  59d  79
2026 06 19 03  23 16 23.957   +09 41 35.03  .12708 1.0317  93.5 20.6  60d  79
2026 06 19 04  23 16 48.361   +09 32 54.63  .12618 1.0316  93.6 20.6  60d  79
2026 06 19 05  23 17 13.093   +09 24 06.61  .12528 1.0314  93.6 20.6  61d  79
2026 06 19 06  23 17 38.160   +09 15 10.80  .12438 1.0313  93.6 20.5  62d  79
2026 06 19 07  23 18 03.569   +09 06 07.05  .12348 1.0312  93.6 20.5  62d  79
2026 06 19 08  23 18 29.326   +08 56 55.19  .12258 1.0310  93.6 20.5  62d  79
2026 06 19 09  23 18 55.438   +08 47 35.06  .12168 1.0309  93.6 20.5  63d  79
2026 06 19 10  23 19 21.914   +08 38 06.48  .12079 1.0307  93.6 20.5  63d  79
2026 06 19 11  23 19 48.760   +08 28 29.27  .11989 1.0306  93.6 20.5  63d  79
2026 06 19 12  23 20 15.984   +08 18 43.26  .11900 1.0304  93.6 20.5  64d  79
2026 06 19 13  23 20 43.595   +08 08 48.25  .11811 1.0303  93.6 20.4  64d  80
2026 06 19 14  23 21 11.600   +07 58 44.06  .11721 1.0301  93.6 20.4  64d  80
2026 06 19 15  23 21 40.007   +07 48 30.49  .11633 1.0300  93.6 20.4  64d  80
2026 06 19 16  23 22 08.826   +07 38 07.34  .11544 1.0298  93.6 20.4  64d  80
2026 06 19 17  23 22 38.065   +07 27 34.40  .11455 1.0297  93.6 20.4  65d  80
2026 06 19 18  23 23 07.733   +07 16 51.47  .11367 1.0295  93.6 20.4  65d  80